{"data":{"norad_id":64920,"epoch":"2026-05-24T23:56:35.575008Z","epoch_age_seconds":71218,"freshness":"FRESH","line1":"1 64920U 25157S   26144.99763397  .00030038  00000+0  10225-2 0  9996","line2":"2 64920  53.1589 351.4550 0001053  77.6384 282.4734 15.30189634 47800","mean_motion":15.30189634,"eccentricity":0.0001053,"inclination_deg":53.1589,"raan_deg":351.455,"arg_perigee_deg":77.6384,"mean_anomaly_deg":282.4734,"bstar":0.0010225,"rev_number":4780,"period_min":94.105983206523,"perigee_km":474.5243593695,"apogee_km":475.96768183364,"semimajor_km":6853.3830206016,"source":"CELESTRAK","updated_at":"2026-05-25T13:38:20.623888Z"}}